Regional Weather Roundup
Issued by NWS

Home | Current Version | Previous Version | Graphics & Text | Print | Product List | Glossary On
Versions: 1 2 3 4 5 6 7 8 9 10 11 12 13 14 15 16 17 18 19 20 21 22 23 24 25 26 27 28 29 30 31 32 33 34 35 36 37 38 39 40 41 42 43 44 45 46 47 48 49 50
000
ASUS43 KMKX 072021
RWRWI

WISCONSIN REGIONAL WEATHER ROUNDUP
NATIONAL WEATHER SERVICE MILWAUKEE/SULLIVAN WI
300 PM CDT TUE JUL 07 2015

NOTE: "FAIR" INDICATES FEW OR NO CLOUDS BELOW 12,000 FEET WITH NO
SIGNIFICANT WEATHER AND/OR OBSTRUCTIONS TO VISIBILITY.

WIZ001-002-006>008-014>016-023>028-072100-
NORTHWEST WISCONSIN

CITY           SKY/WX    TMP DP  RH WIND       PRES   REMARKS
SUPERIOR ARPT  SUNNY     71  49  46 W9        30.11F
ASHLAND        SUNNY     68  44  42 CALM      30.12F
HAYWARD        MOSUNNY   67  43  41 E5        30.13F
SIREN          MOSUNNY   68  43  39 NE6       30.13F
CUMBERLAND     MOSUNNY   66  45  45 N7G18     30.13F
RICE LAKE      MOSUNNY   67  46  45 N8        30.14F
CHETEK         PTSUNNY   68  48  48 N6        30.12S
LADYSMITH      MOSUNNY   69  46  45 N10       30.13S
EAU CLAIRE     PTSUNNY   70  47  43 VRB6      30.11F
MENOMONIE      MOSUNNY   69  47  46 NW7       30.12F
NEW RICHMOND   PTSUNNY   67  47  48 CALM      30.14F
OSCEOLA        PTSUNNY   69  46  45 CALM      30.16F
$$

WIZ003>005-009-010-017-018-072100-
NORTH CENTRAL WISCONSIN

CITY           SKY/WX    TMP DP  RH WIND       PRES   REMARKS
MANITOWISH WTR MOSUNNY   63  45  52 N9        30.12S
ARBOR VITAE    MOSUNNY   64  47  52 N7        30.11S
WOODRUFF       MOSUNNY   64  47  52 N7        30.11S
RHINELANDER    PTSUNNY   66  45  46 VRB5      30.11S
EAGLE RIVER    MOSUNNY   64  43  45 N9G16     30.10S
LAND O LAKES   MOSUNNY   63  43  47 N10G17    30.12S
PHILLIPS       MOSUNNY   65  46  49 N7        30.11S
TOMAHAWK       PTSUNNY   64  46  52 N5        30.11S
MEDFORD        PTSUNNY   68  49  50 N7        30.10S
MERRILL        MOSUNNY   66  47  50 NE9G16    30.10S
$$

WIZ029-030-035-036-043>047-072100-
CENTRAL WISCONSIN

CITY           SKY/WX    TMP DP  RH WIND       PRES   REMARKS
WAUSAU         MOSUNNY   67  46  47 N13       30.07S
MOSINEE        PTSUNNY   66  46  48 N10G17    30.10S
MARSHFIELD     PTSUNNY   68  45  43 N12       30.10S
STEVENS POINT  CLOUDY    65  46  50 N10G16    30.09S
WAUPACA        PTSUNNY   73  45  36 N9        30.08R
WAUTOMA        MOSUNNY   69  45  42 NW8       30.08S
WISC RAPIDS    PTSUNNY   69  45  41 N9        30.10S
CAMP DOUGLAS   PTSUNNY   68  52  56 NW9       30.09F
$$

WIZ011>013-019>022-031-037>040-048>050-072100-
NORTHEAST WISCONSIN

CITY           SKY/WX    TMP DP  RH WIND       PRES   REMARKS
ANTIGO         PTSUNNY   65  49  55 N10G18    30.09S
SHAWANO        PTSUNNY   69  48  46 N13       30.07R
OCONTO         CLOUDY    67  47  50 N9        30.05S
STURGEON BAY   MOSUNNY   64  48  55 N15       30.08R
GREEN BAY      CLOUDY    70  49  47 N12       30.06R
MANITOWOC      CLOUDY    67  49  52 MISG      30.05S
APPLETON       PTSUNNY   66  45  45 N10       30.07S
CLINTONVILLE   PTSUNNY   68  45  42 NE12G18   30.06S
OSHKOSH        MOSUNNY   69  48  47 N13G22    30.06S
$$

WIZ032>034-041-042-053>061-072100-
SOUTHWEST WISCONSIN

CITY           SKY/WX    TMP DP  RH WIND       PRES   REMARKS
LA CROSSE      PTSUNNY   69  46  43 N8G17     30.11S
SPARTA         MOSUNNY   67  43  41 N5        30.11F
VIROQUA        PTSUNNY   65  48  53 N13       30.11S
BOSCOBEL       MOSUNNY   70  50  49 N8        30.09S
PRAIRIE DU CHI PTSUNNY   68  47  46 N10G16    30.09S
PLATTEVILLE    CLOUDY    67  51  56 N10       30.07S
$$

WIZ056-057-062-063-064-067-068-072100-
SOUTH CENTRAL WISCONSIN

CITY           SKY/WX    TMP DP  RH WIND       PRES   REMARKS
REEDSBURG      NOT AVBL
BARABOO/DELLS  CLOUDY    67  46  47 N7        30.09R
LONE ROCK      PTSUNNY   67  48  50 N9        30.08S
MINERAL POINT  CLOUDY    68  46  45 N9        30.08S
MADISON        PTSUNNY   67  51  56 N12G18    30.06S
MIDDLETON      NOT AVBL
WATERTOWN      CLOUDY    68  52  56 N9        30.06R
MONROE         PTSUNNY   68  54  60 N13G20    30.05F
JANESVILLE     PTSUNNY   70  52  52 N10       30.04S
$$

WIZ051-052-058>065-066-070>072-072100-
SOUTHEAST WISCONSIN

CITY           SKY/WX    TMP DP  RH WIND       PRES   REMARKS
MILWAUKEE      MOSUNNY   64  49  57 NE14G24   30.05R
WAUKESHA       PTSUNNY   66  46  48 NW12G18   30.06R
MILWAUKEE/TIMM MOSUNNY   66  46  48 NE9       30.05S
RACINE         SUNNY     65  47  52 NE16G25   30.07R
BURLINGTON     NOT AVBL
KENOSHA        MOSUNNY   66  50  56 NE15G22   30.05R
FOND DU LAC    CLOUDY    68  49  50 NE10G22   30.06S
SHEBOYGAN      PTSUNNY   66  49  54 N9        30.05R
WEST BEND      CLOUDY    64  45  48 N6        30.05S
JUNEAU         PTSUNNY   66  49  53 N10G18    30.07S
$$

LSZ147-162-072100-
LAKE SUPERIOR

STATION/POSITION TIME  TEMP    WIND        PRES    WAVE
                       AIR SEA DIR/SP/G            HT/PER
                 (UTC) (F)     (DEG/KT/KT) (MB)    (FT/S)
W MID LAKE BUOY  1950   46 39  210/  8/ 10 1019.4F   0
DEVILS ISLAND    2000   63     220/  5/  7 1019.6F
PORT WING        1940   65     300/  7/  7 1019.6F
SAXON HARBOR     1900   66        CALM     1020.7S
$$

LMZ867-665-643>646-072100-
LAKE MICHIGAN

STATION/POSITION TIME  TEMP    WIND        PRES    WAVE
                       AIR SEA DIR/SP/G            HT/PER
                 (UTC) (F)     (DEG/KT/KT) (MB)    (FT/S)
CHAMBERS ISLAND  1900   63     330/ 12/ 16 1017.6S
S GREEN BAY BUOY 1900   64 68  360/ 14/ 17 1018.7
N MID LAKE BUOY  1950   56 53  310/ 12/ 12 1016.8R   2/ 4
NORTHPORT PIER   1900   60     340/ 15/ 18 1017.3S
SISTER BAY       1814   63     360/ 20/ 24   N/A
ALGOMA LAKESHORE 1941          320/ 13/ 18   N/A
KEWAUNEE LAKESHO 1900   62      10/  4/ 12 1016.8S
SHEBOYGAN LAKESH 2000   57      50/  9/ 11 1018.2R
PORT WASHINGTON  1900   61      60/  7/ 12 1018.3
ATWATER BUOY     2000   59 59   40/ 14/ 17 1018.7R
MILWAUKEE LAKESH 2000   58      30/ 13/ 15   N/A
KENOSHA   LAKESH 2000   59      30/ 14/ 17 1017.3R
$$

TC  - TEMPERATURE IN CELSIUS
VSB - VISIBILITY IN STATUTE MILES
WCI - WIND CHILL INDEX
HX  - HEAT INDEX



USA.gov is the U.S. government's official web portal to all federal, state and local government web resources and services.